Tracking 35331 objects as of 14-Sep-2026
HD Live streaming from Space Station
objects crossing your sky now

N-2 R/B(1)


N-2 R/B(1) is no longer on orbit


NORAD ID: 14660
Int'l Code: 1984-005B
Launch date: January 23, 1984
Source: Japan (JPN)
Launch site: TANEGASHIMA SPACE CENTER (TNSTA)
Decay date: 1984-11-21

Note: This is a ROCKET BODY
Your satellite tracking list
Your tracking list is empty




NASA's NSSDC Master Catalog

Two Line Element Set (TLE):
1 14660U 84005  B 84326.36331572  .16238800 -30059-4 +61743-3 0  9991
2 14660 029.8993 340.4138 0049228 061.4536 299.1787 16.37084462042967
Source of the keplerian elements: AFSPC